x

Buoy E01 - Central Maine Shelf (44032) Wave Buoy

7:04 - Fri 9th Dec 2016 All times are EST. -5 hours from GMT.

  • Sig Wave height 4.9ft
  • Peak Period 5s
  • Wind
    27mph, 36mph gusts
  • Sea Temp 50°f
  • Air Temp 30°f
  • Sea Pressure 1016mb
  • Buoy E01 - Central Maine Shelf
  • Buoy E01 - Central Maine Shelf

More Historic Weather Station data

Upgrade to MSW Pro to gain access to the past 30 days of data for over 8000 Wavebouys and Weather Stations around the globe.

Join Pro

Comparision Forecast

View Surf forecast
   
ven. 12/09 7:04 5ft 5s 27 36 mph 1016mb 50f 30f
6:04 5ft 5s 25 36 mph 1015.4mb 50f 31f
5:04 5ft 5s 27 38 mph 1014.6mb 50f 32f
4:04 4.5ft 5s 29 36 mph 1013.3mb 50f 32f
3:04 4.5ft 5s 27 34 mph 1012.2mb 50f 32f
2:04 5ft 4s 27 31 mph 1011.3mb 50f 33f
mer. 12/07 10:04  -   -  7 11 mph 1015.8mb 50f 38f
9:04 1.6ft 3s 9 13 mph 1015.7mb 50f 38f
8:04  -   -  11 16 mph 1015.2mb 50f 38f
7:04 3.5ft 11s 13 16 mph 1014.6mb 50f 38f
6:04 1.6ft 3s 11 13 mph 1014.8mb - 38f
5:04 1.6ft 3s 16 18 mph 1013.9mb 50f 37f
4:04 2.5ft 11s 13 16 mph 1015mb 50f 37f
3:04 2ft 11s 11 13 mph 1015.7mb 50f 36f
2:04 2.5ft 11s 7 13 mph 1016.1mb - 35f
1:04 1.3ft 4s 11 16 mph 1016mb 50f 35f
12:04 1.3ft 3s 9 11 mph 1016.5mb 50f 35f
mar. 12/06 11:04 1.3ft 3s 9 11 mph 1017.2mb 50f 35f
10:04 1.3ft 3s 11 16 mph 1017.4mb - 35f
7:04 2ft 11s 9 11 mph 1017.4mb 50f 35f
6:04 1.3ft 2s 9 13 mph 1017.6mb 50f 35f
5:04 1.3ft 2s 9 13 mph 1017.5mb 50f 35f
4:04 1.3ft 5s 9 13 mph 1017.9mb 50f 35f
3:04 1.3ft 3s 9 13 mph 1018mb 50f 36f
2:04 1.6ft 3s 11 16 mph 1017.9mb 50f 35f
1:04 2ft 3s 13 16 mph 1018mb 50f 34f
12:04 2.5ft 3s 13 18 mph 1018.7mb 50f 34f
11:04 2.5ft 3s 16 20 mph 1018.9mb 50f 34f
10:04 2.5ft 3s 18 22 mph 1019mb 50f 34f
9:04 2.5ft 3s 18 22 mph 1019.3mb 50f 34f
8:04 2.5ft 3s 16 18 mph 1019mb - 34f
7:04 2.5ft 3s 18 22 mph 1018.4mb 50f 35f
6:04 2ft 3s 16 22 mph 1018.2mb 50f 35f
5:04 2ft 3s 16 18 mph 1017.2mb - 35f
4:04 2.5ft 3s 16 18 mph 1016.6mb 50f 35f
3:04 2.5ft 3s 16 20 mph 1015.9mb - 34f
2:04 2.5ft 3s 20 25 mph 1015mb - 34f